Wind_Speed
25 25 25 25 25 26 25 24 24 23 24 23 24 23 22 22 21 21 20 20 20 21 21 22 22 23 23 24 24 24 25 25 25 25 26 26 26 27 27 28 28 29 29 30
27 26 26 26 26 26 26 26 26 26 26 25 26 25 25 24 24 23 23 22 22 22 23 24 24 24 25 25 25 26 26 27 28 28 28 29 29 29 30 31 31 32 32 32
27 26 27 27 26 26 27 27 27 28 28 27 26 26 25 25 25 25 25 24 24 24 25 25 26 26 27 27 27 28 28 29 30 30 31 31 32 32 32 33 34 35 35 35
27 27 28 28 26 26 27 27 27 27 28 28 27 27 27 27 26 26 27 27 27 27 28 28 28 28 29 29 29 30 31 32 32 33 33 34 34 34 35 35 36 36 37 37
29 28 29 29 28 27 27 27 26 27 28 28 28 27 28 28 28 29 29 29 29 30 30 30 30 30 31 31 31 32 33 34 34 35 35 35 35 36 36 36 37 37 37 37
30 29 29 29 28 28 28 28 26 26 26 27 28 28 28 28 29 30 30 30 31 32 32 32 32 33 33 33 33 34 34 35 36 36 36 35 36 37 37 37 37 38 38 38
31 30 30 30 29 28 29 29 28 28 28 28 29 29 29 29 29 30 31 32 32 33 33 34 34 34 34 34 34 35 36 37 37 36 36 36 37 37 37 37 37 37 38 38
31 31 31 31 30 30 30 30 30 29 29 29 30 30 30 30 30 31 31 32 33 33 33 34 34 35 35 35 36 36 37 37 37 37 37 38 37 38 38 39 39 38 38 38
31 32 32 32 32 31 31 31 31 30 30 31 31 31 31 31 31 31 32 32 33 34 34 34 35 36 36 36 36 36 37 37 37 37 38 39 39 38 39 40 39 39 39 39
32 32 32 31 31 31 30 30 30 31 31 31 32 31 31 31 32 32 32 33 34 35 35 35 35 36 36 36 36 37 37 37 38 39 39 39 39 39 39 39 39 39 39 38
32 32 31 31 31 31 31 31 31 31 31 31 32 32 32 32 32 32 33 33 34 34 35 35 35 36 36 37 37 38 38 38 38 38 37 38 38 38 39 39 39 39 39 39
32 31 31 31 32 32 32 32 32 32 32 32 32 32 32 32 32 33 33 34 36 37 37 37 37 37 37 37 38 39 39 39 38 38 39 39 39 38 39 39 39 39 39 39
32 32 32 32 32 32 32 33 33 32 32 33 33 33 33 33 34 35 35 36 37 37 37 37 37 37 37 37 38 39 38 38 38 38 39 39 39 39 39 39 39 39 38 38
32 32 32 32 31 31 31 31 32 32 32 32 33 33 33 34 34 35 35 35 36 36 36 36 36 37 37 37 37 37 38 38 38 38 38 39 39 39 39 40 39 39 38 38
30 30 30 30 29 29 29 30 30 30 31 31 31 32 33 34 34 35 35 36 36 36 36 36 36 35 35 36 36 37 37 37 37 38 39 39 39 40 40 39 39 38 38 37
29 29 28 28 28 28 28 29 29 30 30 30 31 32 32 33 35 35 35 35 35 35 35 35 35 35 35 35 35 35 36 36 37 38 39 39 39 39 38 37 37 37 37 36
28 27 28 28 28 28 29 29 29 29 30 31 32 32 32 33 32 32 32 33 33 33 34 34 35 34 35 35 35 35 35 36 37 37 37 37 37 37 36 35 35 34 34 34
27 26 26 27 27 28 28 28 29 29 30 30 31 31 32 31 31 31 31 32 32 33 34 34 34 34 34 34 35 35 35 36 36 36 36 36 36 35 35 35 34 34 33 33
25 25 25 25 26 26 26 27 27 28 28 28 28 29 29 29 30 30 30 31 32 33 33 33 33 34 34 34 34 34 35 35 35 35 35 35 35 35 34 34 33 32 32 31
23 24 24 24 24 25 25 25 26 26 26 26 26 27 27 28 28 28 29 30 30 31 32 33 33 33 33 33 33 34 34 34 34 34 34 34 34 33 33 32 32 31 31 31
21 22 22 22 22 23 23 24 25 25 24 25 25 25 25 25 26 27 27 28 28 29 30 30 30 31 31 31 32 32 32 32 32 32 32 32 32 32 32 31 30 30 30 30
21 21 21 21 21 22 22 23 23 23 23 23 23 23 24 24 24 25 25 26 26 27 28 28 29 29 30 30 31 31 31 31 31 31 30 30 30 30 30 30 29 29 28 29
19 20 20 20 21 21 21 22 22 22 22 21 22 23 23 24 24 24 25 25 26 26 27 28 28 29 29 29 30 30 30 29 29 29 29 29 29 29 29 28 28 28 28 28
19 20 20 20 19 20 20 21 21 21 21 21 21 22 23 23 24 25 25 25 26 26 27 27 27 28 29 29 29 28 28 27 26 27 27 27 27 27 27 27 27 27 27 27
18 18 19 19 19 19 20 20 20 21 21 22 22 23 23 24 25 25 25 26 26 26 26 26 26 27 28 28 28 27 26 26 26 27 27 27 27 27 27 27 27 27 27 27
17 17 18 18 19 19 18 19 19 19 20 21 22 22 23 23 23 24 25 25 25 25 26 26 27 27 28 28 27 27 27 27 27 28 27 27 27 27 28 28 28 27 27 26
16 16 17 17 17 17 18 18 19 20 20 21 21 21 22 22 23 23 24 24 25 25 25 26 26 27 27 27 27 27 27 27 28 27 27 27 27 27 27 27 27 26 26 26
Wind_Direction
249 251 255 260 261 261 261 262 263 265 267 266 266 269 270 269 270 269 268 269 269 269 271 273 275 275 277 279 281 282 283 283 283 287 288 287 290 292 291 290 288 287 286 285
253 254 257 260 261 262 263 263 264 264 265 265 266 268 269 268 268 269 269 269 269 268 269 271 273 274 276 278 280 281 282 283 284 286 286 287 288 289 290 290 289 287 285 285
255 258 260 260 260 261 263 263 264 265 265 265 266 267 268 267 267 266 269 270 268 267 268 270 273 274 275 277 279 281 282 284 285 285 286 286 287 288 288 289 288 288 287 288
254 256 258 262 263 262 263 264 265 264 264 265 267 268 268 266 265 266 267 269 269 267 267 268 270 273 275 276 277 279 281 282 283 285 285 286 287 287 287 288 289 288 288 288
252 257 262 263 263 263 265 266 266 266 264 266 268 269 269 268 266 266 267 269 268 267 267 267 268 271 273 275 277 278 279 281 282 284 284 285 285 286 287 287 288 288 289 289
252 255 259 264 264 264 265 265 265 267 266 266 267 268 269 268 267 266 266 269 268 267 268 268 269 271 273 274 276 278 280 281 282 283 283 284 285 286 287 288 288 289 288 288
253 256 258 261 263 264 264 266 267 267 267 266 266 267 268 269 268 266 266 267 268 268 269 269 270 271 273 274 276 278 279 280 280 281 282 283 284 286 287 289 289 289 289 287
254 255 258 261 262 262 264 266 267 268 268 268 268 268 269 269 269 269 269 269 269 269 269 270 271 273 274 276 277 278 279 280 280 281 283 284 285 285 286 288 288 288 288 287
253 254 257 259 261 263 264 266 266 267 268 268 270 271 271 270 270 271 271 270 270 271 271 271 272 274 275 276 277 278 279 279 280 281 283 284 284 285 286 287 286 287 287 287
254 255 257 260 261 262 263 264 265 266 268 269 270 271 271 271 269 270 271 271 272 273 273 274 274 274 276 277 277 278 280 281 281 281 283 284 284 284 285 286 286 287 287 287
254 256 258 259 261 263 264 265 265 266 267 269 270 270 270 269 269 269 269 271 274 274 275 276 275 276 277 278 280 280 281 282 283 284 285 286 287 288 288 288 289 289 288 288
255 257 259 261 262 265 266 266 266 266 266 268 269 270 270 270 269 270 270 272 273 274 275 277 277 278 279 280 281 282 283 283 284 286 287 287 289 290 290 290 290 289 288 288
257 258 261 263 264 265 266 266 266 265 265 266 268 270 270 271 272 272 272 272 273 275 278 279 279 280 281 282 282 283 283 283 284 286 286 287 288 290 291 291 290 288 288 288
257 259 261 263 264 265 265 265 265 266 266 267 269 271 272 273 273 273 274 274 275 278 280 280 281 282 283 284 284 284 283 283 285 286 286 287 287 288 290 291 290 288 288 288
257 260 262 264 264 264 265 265 265 266 268 268 270 272 273 274 274 274 276 277 278 280 280 281 282 284 285 285 284 284 284 285 285 286 287 287 288 289 290 291 290 289 288 288
258 260 262 264 264 264 266 266 267 268 269 271 272 273 275 276 275 276 277 278 279 279 281 281 283 284 285 286 286 285 285 286 287 288 289 289 290 291 292 291 291 290 289 288
259 260 262 263 263 264 265 266 268 269 271 272 273 274 275 277 277 277 278 278 278 278 279 281 283 284 286 286 286 285 286 286 287 289 290 290 290 291 291 291 291 291 290 289
260 260 261 261 261 263 264 265 267 269 271 273 274 275 275 276 277 277 277 277 278 280 281 283 284 286 287 286 286 287 287 288 289 290 290 290 290 291 291 291 291 290 290 289
259 260 260 261 262 263 265 267 269 271 272 274 275 276 276 277 278 277 278 279 281 283 284 285 286 287 288 288 288 288 288 289 290 291 292 292 291 291 291 290 290 289 290 289
258 259 260 261 261 263 266 268 270 271 273 274 275 276 277 277 278 278 279 281 282 284 286 287 288 289 290 290 290 289 290 290 290 290 291 292 292 292 292 291 290 289 289 288
256 258 260 260 261 263 266 268 270 272 275 276 278 279 281 281 282 283 283 285 286 287 288 289 290 290 291 292 293 293 293 292 291 291 292 293 294 293 293 293 292 289 288 287
256 258 260 260 261 264 267 269 272 274 277 279 279 281 282 284 285 286 287 287 289 289 291 292 293 293 294 294 294 294 294 293 292 292 293 294 295 294 294 294 292 291 289 288
255 257 260 262 264 267 270 271 273 275 276 278 280 282 284 285 286 288 288 290 291 292 293 294 294 295 295 296 296 296 294 294 294 294 295 295 295 295 295 295 294 292 290 289
257 258 261 262 264 267 270 272 275 276 276 279 282 283 285 287 288 288 290 291 293 294 295 295 296 297 297 297 298 297 296 295 295 296 297 296 295 295 295 294 293 292 291 291
258 259 260 261 265 269 272 274 275 277 279 281 283 286 288 289 290 289 290 292 294 294 295 297 298 299 300 299 298 297 296 295 296 297 298 297 296 295 295 295 295 294 293 292
258 259 261 264 268 271 273 274 277 279 282 284 287 289 291 292 292 292 292 293 293 293 295 296 297 298 299 300 299 298 298 298 298 298 296 295 295 294 294 295 295 294 293 293
260 260 263 265 268 272 275 277 280 282 284 286 288 290 291 293 294 294 295 296 296 296 297 298 299 299 300 300 300 299 299 299 298 297 296 295 295 295 295 296 295 295 294 294
Height
5881 5882 5883 5883 5884 5885 5885 5887 5888 5888 5888 5888 5887 5887 5887 5888 5888 5888 5888 5888 5887 5887 5886 5886 5885 5884 5883 5882 5881 5880 5878 5877 5875 5874 5873 5871 5870 5868 5867 5865 5863 5861 5859 5857
5873 5875 5875 5876 5877 5877 5878 5879 5880 5880 5880 5880 5880 5880 5881 5881 5881 5881 5881 5881 5881 5881 5880 5880 5879 5878 5877 5876 5875 5873 5872 5870 5869 5867 5866 5864 5863 5861 5859 5857 5855 5853 5851 5849
5867 5868 5868 5869 5870 5870 5871 5871 5872 5872 5873 5873 5873 5873 5873 5873 5873 5873 5873 5873 5874 5873 5873 5873 5872 5871 5870 5869 5868 5866 5865 5863 5861 5860 5858 5856 5854 5852 5850 5848 5846 5844 5843 5841
5859 5861 5860 5863 5863 5863 5863 5863 5864 5864 5864 5865 5865 5865 5865 5865 5865 5865 5865 5866 5866 5865 5865 5865 5864 5864 5863 5861 5860 5859 5857 5855 5853 5852 5850 5848 5846 5844 5842 5839 5837 5835 5833 5831
5852 5852 5853 5854 5854 5855 5855 5855 5856 5856 5856 5857 5857 5857 5857 5857 5857 5857 5857 5857 5857 5857 5856 5856 5856 5855 5854 5853 5852 5850 5848 5847 5845 5843 5841 5839 5837 5834 5832 5830 5827 5825 5823 5821
5843 5845 5846 5847 5846 5847 5848 5847 5848 5848 5849 5849 5849 5849 5849 5849 5848 5848 5848 5848 5848 5847 5847 5847 5847 5846 5845 5844 5842 5841 5839 5837 5835 5833 5830 5828 5826 5824 5822 5819 5817 5814 5812 5810
5835 5836 5838 5837 5838 5839 5841 5841 5840 5840 5840 5840 5840 5841 5840 5840 5839 5839 5839 5839 5839 5838 5838 5838 5837 5837 5836 5834 5833 5831 5829 5827 5824 5823 5820 5818 5816 5814 5811 5809 5806 5804 5801 5799
5827 5828 5830 5828 5829 5831 5831 5831 5831 5831 5831 5831 5831 5831 5831 5830 5830 5830 5830 5830 5829 5829 5829 5828 5828 5827 5825 5824 5822 5820 5818 5816 5814 5812 5810 5807 5805 5803 5800 5798 5795 5793 5791 5788
5818 5820 5819 5819 5820 5821 5822 5822 5822 5822 5822 5822 5822 5822 5822 5821 5821 5821 5820 5820 5819 5819 5819 5818 5817 5816 5815 5814 5812 5810 5808 5805 5803 5801 5799 5796 5794 5792 5789 5786 5784 5782 5779 5777
5808 5809 5810 5811 5811 5812 5812 5812 5813 5813 5813 5813 5813 5812 5812 5812 5811 5811 5811 5810 5809 5809 5808 5808 5807 5805 5804 5803 5801 5799 5797 5795 5793 5790 5788 5785 5783 5781 5778 5775 5773 5770 5768 5765
5798 5800 5801 5802 5802 5803 5803 5803 5803 5804 5804 5804 5803 5803 5803 5802 5802 5802 5801 5801 5800 5799 5798 5797 5796 5794 5793 5791 5790 5788 5786 5784 5781 5778 5776 5774 5772 5769 5767 5764 5761 5759 5756 5754
5789 5791 5792 5793 5793 5793 5794 5794 5794 5794 5794 5794 5794 5793 5793 5792 5792 5792 5791 5791 5790 5788 5787 5786 5784 5783 5781 5780 5778 5776 5774 5772 5769 5767 5765 5762 5760 5757 5754 5752 5749 5747 5744 5742
5780 5781 5782 5783 5783 5783 5784 5784 5784 5784 5785 5785 5785 5784 5784 5783 5782 5782 5781 5780 5779 5777 5776 5775 5773 5772 5770 5768 5766 5764 5762 5760 5758 5756 5754 5751 5749 5746 5743 5740 5737 5735 5732 5730
5770 5771 5772 5773 5774 5774 5774 5774 5774 5775 5775 5775 5775 5774 5774 5773 5772 5771 5770 5769 5768 5767 5766 5764 5763 5761 5759 5757 5755 5753 5751 5748 5746 5744 5742 5740 5737 5734 5731 5728 5726 5723 5720 5718
5761 5762 5763 5764 5764 5765 5765 5765 5765 5765 5765 5765 5765 5764 5764 5763 5762 5761 5760 5759 5758 5756 5755 5753 5752 5750 5747 5745 5743 5741 5739 5737 5735 5733 5730 5728 5725 5722 5720 5717 5714 5711 5709 5706
5752 5753 5754 5755 5755 5756 5756 5756 5756 5756 5756 5756 5755 5755 5754 5753 5752 5751 5750 5749 5747 5746 5744 5743 5741 5739 5736 5734 5731 5729 5728 5726 5723 5721 5718 5716 5713 5711 5708 5706 5703 5700 5698 5695
5743 5744 5745 5746 5746 5747 5747 5747 5747 5747 5747 5747 5746 5745 5745 5743 5742 5741 5740 5739 5737 5736 5734 5732 5730 5728 5726 5723 5721 5719 5717 5715 5712 5710 5707 5705 5702 5699 5697 5695 5692 5689 5687 5685
5734 5735 5736 5737 5738 5738 5738 5738 5738 5738 5738 5737 5736 5735 5735 5734 5733 5731 5730 5729 5727 5726 5724 5722 5719 5717 5715 5712 5710 5708 5706 5703 5701 5699 5696 5693 5691 5688 5686 5684 5681 5679 5677 5674
5726 5727 5728 5728 5729 5730 5730 5730 5730 5730 5729 5728 5727 5726 5725 5724 5723 5722 5720 5719 5717 5716 5714 5711 5709 5707 5704 5702 5699 5697 5695 5692 5690 5687 5685 5682 5680 5678 5675 5673 5671 5668 5666 5664
5719 5719 5720 5721 5721 5722 5722 5722 5722 5721 5721 5720 5719 5718 5717 5716 5714 5713 5711 5709 5708 5706 5703 5701 5699 5696 5694 5692 5689 5687 5684 5682 5679 5677 5674 5671 5669 5667 5664 5662 5660 5658 5656 5653
5712 5712 5713 5713 5714 5714 5714 5714 5714 5713 5712 5712 5711 5710 5708 5707 5706 5704 5702 5700 5698 5696 5694 5691 5689 5687 5684 5681 5679 5676 5674 5671 5668 5666 5663 5661 5659 5656 5654 5652 5649 5647 5645 5643
5705 5705 5706 5707 5707 5707 5707 5707 5706 5706 5705 5704 5703 5702 5701 5699 5698 5696 5694 5692 5690 5688 5685 5683 5680 5678 5675 5672 5669 5667 5664 5661 5658 5656 5654 5651 5649 5647 5644 5642 5639 5637 5635 5633
5698 5699 5700 5700 5700 5700 5700 5700 5699 5699 5698 5697 5696 5694 5693 5692 5690 5688 5686 5684 5682 5680 5677 5675 5672 5669 5666 5663 5660 5657 5654 5652 5649 5647 5645 5642 5640 5637 5635 5632 5630 5628 5626 5624
5693 5693 5694 5694 5694 5694 5694 5693 5693 5692 5691 5690 5688 5687 5686 5684 5683 5681 5678 5676 5674 5672 5669 5667 5664 5661 5658 5655 5652 5649 5646 5643 5641 5639 5636 5634 5631 5629 5626 5624 5621 5619 5617 5614
5687 5687 5688 5688 5688 5688 5687 5687 5686 5685 5684 5683 5682 5680 5678 5677 5675 5673 5671 5669 5666 5664 5661 5659 5656 5653 5650 5647 5644 5641 5638 5636 5633 5630 5628 5625 5623 5621 5618 5615 5613 5610 5608 5605
5681 5682 5682 5682 5682 5682 5681 5680 5679 5679 5678 5676 5675 5673 5671 5669 5667 5665 5663 5661 5658 5656 5654 5651 5648 5645 5642 5639 5636 5633 5630 5627 5625 5622 5619 5617 5615 5612 5610 5607 5604 5602 5599 5597
5676 5676 5676 5676 5676 5676 5675 5674 5673 5672 5671 5670 5668 5666 5664 5662 5660 5658 5655 5653 5651 5648 5646 5643 5640 5637 5634 5631 5628 5625 5622 5619 5616 5614 5611 5608 5606 5603 5601 5598 5595 5593 5590 5588